Regional Weather Roundup
Issued by NWS

Home | Current Version | Previous Version | Text Only | Print | Product List | Glossary On
Versions: 1 2 3 4 5 6 7 8 9 10 11 12 13 14 15 16 17 18 19 20 21 22 23 24 25 26 27 28 29 30 31 32 33 34 35 36 37 38 39 40 41 42 43 44 45 46 47 48 49 50
000
ASUS43 KBIS 031210
RWRND

NORTH DAKOTA REGIONAL WEATHER ROUNDUP
NATIONAL WEATHER SERVICE BISMARCK ND
600 AM CST TUE MAR 03 2015

NOTE: "FAIR" INDICATES FEW OR NO CLOUDS BELOW 12,000 FEET WITH NO
SIGNIFICANT WEATHER AND/OR OBSTRUCTIONS TO VISIBILITY.


NDZ001>003-009>011-017-031300-
NORTHWEST NORTH DAKOTA

CITY           SKY/WX    TMP DP  RH WIND       PRES   REMARKS
WILLISTON      CLEAR      2  -6  69 NW12      30.08R WCI -15
6HR MIN TEMP:   2; 6HR MAX TEMP:  16; 6HR PCP: TRACE;

MINOT          FLURRIES   2  -7  66 NW25      29.96R WCI -22
MINOT AFB      CLEAR      2  -5  73 NW26G36   29.94S WCI -23
$$

NDZ018>021-031>035-040>046-031300-
SOUTHWEST NORTH DAKOTA

CITY           SKY/WX    TMP DP  RH WIND       PRES   REMARKS
BISMARCK       CLOUDY     9  -3  58 NW25G40   29.96R WCI -12
6HR MIN TEMP:   9; 6HR MAX TEMP:  22; 6HR PCP: TRACE;

DICKINSON      CLOUDY     7  -5  57 NW23G31   29.96R WCI -14
GARRISON         N/A      4  -3  73 NW22      29.97R WCI -18
6HR MIN TEMP:   4; 6HR MAX TEMP:  16;

HETTINGER ARPT CLOUDY     9  -1  64 NW21      29.95R WCI -11
$$

NDZ004>008-012>016-024-026-027-054-031300-
NORTHEAST NORTH DAKOTA

CITY           SKY/WX    TMP DP  RH WIND       PRES   REMARKS
GRAND FORKS    CLOUDY    17  10  74 NW17G26   29.80R WCI   1
GRND FRKS AFB  CLOUDY    15   7  70 N21G28    29.81R WCI  -2
DEVILS LAKE    CLOUDY     9   1  72 NW24G30   29.84R WCI -12
$$

NDZ022-023-025-028>030-036>039-047>053-031300-
SOUTHEAST NORTH DAKOTA

CITY           SKY/WX    TMP DP  RH WIND       PRES   REMARKS
FARGO          LGT SNOW  19  14  81 NW25G33   29.74R WCI   1
6HR MIN TEMP:  19; 6HR MAX TEMP:  28; 6HR PCP: TRACE;

JAMESTOWN      CLOUDY    13   6  74 NW28G37   29.81R WCI  -8
$$



USA.gov is the U.S. government's official web portal to all federal, state and local government web resources and services.